Year,Month,Day,Hour,Minute,Value (Times are PST for temperature in C)
2010,07,08,00,00,24.20
2010,07,08,00,01,24.20
2010,07,08,00,02,24.20
2010,07,08,00,03,24.20
2010,07,08,00,04,24.20
2010,07,08,00,05,24.20
2010,07,08,00,06,24.20
2010,07,08,00,07,24.10
2010,07,08,00,08,24.10
2010,07,08,00,09,24.00
2010,07,08,00,10,24.00
2010,07,08,00,11,23.90
2010,07,08,00,12,23.80
2010,07,08,00,13,23.70
2010,07,08,00,14,23.60
2010,07,08,00,15,23.40
2010,07,08,00,16,23.30
2010,07,08,00,17,23.20
2010,07,08,00,18,23.10
2010,07,08,00,19,23.00
2010,07,08,00,20,22.90
2010,07,08,00,21,22.80
2010,07,08,00,22,22.80
2010,07,08,00,23,22.70
2010,07,08,00,24,22.60
2010,07,08,00,25,22.60
2010,07,08,00,26,22.50
2010,07,08,00,27,22.40
2010,07,08,00,28,22.40
2010,07,08,00,29,22.30
2010,07,08,00,30,22.20
2010,07,08,00,31,22.10
2010,07,08,00,32,22.00
2010,07,08,00,33,22.00
2010,07,08,00,34,21.90
2010,07,08,00,35,21.80
2010,07,08,00,36,21.80
2010,07,08,00,37,21.70
2010,07,08,00,38,21.60
2010,07,08,00,39,21.50
2010,07,08,00,40,21.50
2010,07,08,00,41,21.40
2010,07,08,00,42,21.40
2010,07,08,00,43,21.30
2010,07,08,00,44,21.30
2010,07,08,00,45,21.20
2010,07,08,00,46,21.20
2010,07,08,00,47,21.10
2010,07,08,00,48,21.10
2010,07,08,00,49,21.10
2010,07,08,00,50,21.00
2010,07,08,00,51,21.00
2010,07,08,00,52,20.90
2010,07,08,00,53,20.90
2010,07,08,00,54,20.90
2010,07,08,00,55,20.80
2010,07,08,00,56,20.80
2010,07,08,00,57,20.80
2010,07,08,00,58,20.70
2010,07,08,00,59,20.70
2010,07,08,01,00,20.70
2010,07,08,01,01,20.70
2010,07,08,01,02,20.70
2010,07,08,01,03,20.80
2010,07,08,01,04,20.80
2010,07,08,01,05,20.80
2010,07,08,01,06,20.90
2010,07,08,01,07,20.90
2010,07,08,01,08,21.00
2010,07,08,01,09,21.00
2010,07,08,01,10,21.10
2010,07,08,01,11,21.10
2010,07,08,01,12,21.20
2010,07,08,01,13,21.20
2010,07,08,01,14,21.30
2010,07,08,01,15,21.40
2010,07,08,01,16,21.40
2010,07,08,01,17,21.40
2010,07,08,01,18,21.40
2010,07,08,01,19,21.40
2010,07,08,01,20,21.40
2010,07,08,01,21,21.40
2010,07,08,01,22,21.40
2010,07,08,01,23,21.40
2010,07,08,01,24,21.40
2010,07,08,01,25,21.40
2010,07,08,01,26,21.40
2010,07,08,01,27,21.30
2010,07,08,01,28,21.30
2010,07,08,01,29,21.30
2010,07,08,01,30,21.30
2010,07,08,01,31,21.30
2010,07,08,01,32,21.40
2010,07,08,01,33,21.50
2010,07,08,01,34,21.60
2010,07,08,01,35,21.70
2010,07,08,01,36,21.80
2010,07,08,01,37,21.80
2010,07,08,01,38,21.80
2010,07,08,01,39,21.90
2010,07,08,01,40,22.00
2010,07,08,01,41,22.00
2010,07,08,01,42,22.00
2010,07,08,01,43,22.10
2010,07,08,01,44,22.10
2010,07,08,01,45,22.10
2010,07,08,01,46,22.20
2010,07,08,01,47,22.20
2010,07,08,01,48,22.20
2010,07,08,01,49,22.20
2010,07,08,01,50,22.20
2010,07,08,01,51,22.30
2010,07,08,01,52,22.30
2010,07,08,01,53,22.30
2010,07,08,01,54,22.30
2010,07,08,01,55,22.30
2010,07,08,01,56,22.40
2010,07,08,01,57,22.40
2010,07,08,01,58,22.40
2010,07,08,01,59,22.50
2010,07,08,02,00,22.70
2010,07,08,02,01,22.80
2010,07,08,02,02,22.80
2010,07,08,02,03,22.80
2010,07,08,02,04,22.80
2010,07,08,02,05,22.80
2010,07,08,02,06,22.80
2010,07,08,02,07,22.80
2010,07,08,02,08,22.80
2010,07,08,02,09,22.80
2010,07,08,02,10,22.80
2010,07,08,02,11,22.80
2010,07,08,02,12,22.90
2010,07,08,02,13,22.90
2010,07,08,02,14,22.90
2010,07,08,02,15,22.90
2010,07,08,02,16,22.80
2010,07,08,02,17,22.80
2010,07,08,02,18,22.80
2010,07,08,02,19,22.70
2010,07,08,02,20,22.60
2010,07,08,02,21,22.50
2010,07,08,02,22,22.50
2010,07,08,02,23,22.50
2010,07,08,02,24,22.40
2010,07,08,02,25,22.40
2010,07,08,02,26,22.30
2010,07,08,02,27,22.30
2010,07,08,02,28,22.30
2010,07,08,02,29,22.20
2010,07,08,02,30,22.20
2010,07,08,02,31,22.20
2010,07,08,02,32,22.20
2010,07,08,02,33,22.10
2010,07,08,02,34,22.10
2010,07,08,02,35,22.10
2010,07,08,02,36,22.00
2010,07,08,02,37,22.00
2010,07,08,02,38,21.90
2010,07,08,02,39,21.90
2010,07,08,02,40,21.90
2010,07,08,02,41,21.90
2010,07,08,02,42,21.90
2010,07,08,02,43,21.90
2010,07,08,02,44,21.90
2010,07,08,02,45,21.90
2010,07,08,02,46,21.90
2010,07,08,02,47,21.90
2010,07,08,02,48,21.90
2010,07,08,02,49,21.90
2010,07,08,02,50,21.90
2010,07,08,02,51,21.90
2010,07,08,02,52,21.90
2010,07,08,02,53,21.90
2010,07,08,02,54,21.90
2010,07,08,02,55,21.90
2010,07,08,02,56,21.90
2010,07,08,02,57,21.90
2010,07,08,02,58,21.90
2010,07,08,02,59,21.90
2010,07,08,03,00,21.90
2010,07,08,03,01,21.80
2010,07,08,03,02,21.80
2010,07,08,03,03,21.80
2010,07,08,03,04,21.80
2010,07,08,03,05,21.70
2010,07,08,03,06,21.70
2010,07,08,03,07,21.60
2010,07,08,03,08,21.60
2010,07,08,03,09,21.60
2010,07,08,03,10,21.60
2010,07,08,03,11,21.50
2010,07,08,03,12,21.50
2010,07,08,03,13,21.50
2010,07,08,03,14,21.40
2010,07,08,03,15,21.40
2010,07,08,03,16,21.40
2010,07,08,03,17,21.40
2010,07,08,03,18,21.40
2010,07,08,03,19,21.40
2010,07,08,03,20,21.40
2010,07,08,03,21,21.30
2010,07,08,03,22,21.30
2010,07,08,03,23,21.30
2010,07,08,03,24,21.20
2010,07,08,03,25,21.20
2010,07,08,03,26,21.20
2010,07,08,03,27,21.20
2010,07,08,03,28,21.10
2010,07,08,03,29,21.10
2010,07,08,03,30,21.10
2010,07,08,03,31,21.10
2010,07,08,03,32,21.00
2010,07,08,03,33,21.00
2010,07,08,03,34,21.00
2010,07,08,03,35,21.00
2010,07,08,03,36,20.90
2010,07,08,03,37,20.90
2010,07,08,03,38,20.90
2010,07,08,03,39,20.80
2010,07,08,03,40,20.80
2010,07,08,03,41,20.80
2010,07,08,03,42,20.80
2010,07,08,03,43,20.70
2010,07,08,03,44,20.70
2010,07,08,03,45,20.70
2010,07,08,03,46,20.60
2010,07,08,03,47,20.60
2010,07,08,03,48,20.60
2010,07,08,03,49,20.50
2010,07,08,03,50,20.50
2010,07,08,03,51,20.40
2010,07,08,03,52,20.40
2010,07,08,03,53,20.30
2010,07,08,03,54,20.30
2010,07,08,03,55,20.30
2010,07,08,03,56,20.30
2010,07,08,03,57,20.20
2010,07,08,03,58,20.20
2010,07,08,03,59,20.10
2010,07,08,04,00,20.10
2010,07,08,04,01,20.10
2010,07,08,04,02,20.00
2010,07,08,04,03,20.00
2010,07,08,04,04,19.90
2010,07,08,04,05,19.90
2010,07,08,04,06,19.90
2010,07,08,04,07,19.80
2010,07,08,04,08,19.80
2010,07,08,04,09,19.80
2010,07,08,04,10,19.80
2010,07,08,04,11,19.70
2010,07,08,04,12,19.70
2010,07,08,04,13,19.70
2010,07,08,04,14,19.70
2010,07,08,04,15,19.60
2010,07,08,04,16,19.60
2010,07,08,04,17,19.60
2010,07,08,04,18,19.60
2010,07,08,04,19,19.60
2010,07,08,04,20,19.60
2010,07,08,04,21,19.60
2010,07,08,04,22,19.50
2010,07,08,04,23,19.50
2010,07,08,04,24,19.50
2010,07,08,04,25,19.40
2010,07,08,04,26,19.40
2010,07,08,04,27,19.40
2010,07,08,04,28,19.40
2010,07,08,04,29,19.40
2010,07,08,04,30,19.40
2010,07,08,04,31,19.40
2010,07,08,04,32,19.40
2010,07,08,04,33,19.40
2010,07,08,04,34,19.40
2010,07,08,04,35,19.40
2010,07,08,04,36,19.40
2010,07,08,04,37,19.50
2010,07,08,04,38,19.50
2010,07,08,04,39,19.50
2010,07,08,04,40,19.50
2010,07,08,04,41,19.50
2010,07,08,04,42,19.50
2010,07,08,04,43,19.50
2010,07,08,04,44,19.50
2010,07,08,04,45,19.50
2010,07,08,04,46,19.50
2010,07,08,04,47,19.50
2010,07,08,04,48,19.50
2010,07,08,04,49,19.50
2010,07,08,04,50,19.40
2010,07,08,04,51,19.40
2010,07,08,04,52,19.40
2010,07,08,04,53,19.40
2010,07,08,04,54,19.40
2010,07,08,04,55,19.40
2010,07,08,04,56,19.40
2010,07,08,04,57,19.40
2010,07,08,04,58,19.40
2010,07,08,04,59,19.40
2010,07,08,05,00,19.40
2010,07,08,05,01,19.40
2010,07,08,05,02,19.40
2010,07,08,05,03,19.40
2010,07,08,05,04,19.40
2010,07,08,05,05,19.40
2010,07,08,05,06,19.30
2010,07,08,05,07,19.30
2010,07,08,05,08,19.30
2010,07,08,05,09,19.30
2010,07,08,05,10,19.30
2010,07,08,05,11,19.30
2010,07,08,05,12,19.30
2010,07,08,05,13,19.30
2010,07,08,05,14,19.30
2010,07,08,05,15,19.30
2010,07,08,05,16,19.30
2010,07,08,05,17,19.40
2010,07,08,05,18,19.40
2010,07,08,05,19,19.40
2010,07,08,05,20,19.40
2010,07,08,05,21,19.40
2010,07,08,05,22,19.40
2010,07,08,05,23,19.40
2010,07,08,05,24,19.40
2010,07,08,05,25,19.40
2010,07,08,05,26,19.40
2010,07,08,05,27,19.40
2010,07,08,05,28,19.40
2010,07,08,05,29,19.40
2010,07,08,05,30,19.40
2010,07,08,05,31,19.40
2010,07,08,05,32,19.50
2010,07,08,05,33,19.50
2010,07,08,05,34,19.60
2010,07,08,05,35,19.60
2010,07,08,05,36,19.60
2010,07,08,05,37,19.60
2010,07,08,05,38,19.70
2010,07,08,05,39,19.70
2010,07,08,05,40,19.70
2010,07,08,05,41,19.70
2010,07,08,05,42,19.80
2010,07,08,05,43,19.80
2010,07,08,05,44,19.80
2010,07,08,05,45,19.80
2010,07,08,05,46,19.80
2010,07,08,05,47,19.90
2010,07,08,05,48,19.90
2010,07,08,05,49,19.90
2010,07,08,05,50,20.00
2010,07,08,05,51,20.00
2010,07,08,05,52,20.10
2010,07,08,05,53,20.10
2010,07,08,05,54,20.20
2010,07,08,05,55,20.20
2010,07,08,05,56,20.20
2010,07,08,05,57,20.30
2010,07,08,05,58,20.30
2010,07,08,05,59,20.30
2010,07,08,06,00,20.30
2010,07,08,06,01,20.40
2010,07,08,06,02,20.40
2010,07,08,06,03,20.40
2010,07,08,06,04,20.40
2010,07,08,06,05,20.50
2010,07,08,06,06,20.50
2010,07,08,06,07,20.50
2010,07,08,06,08,20.50
2010,07,08,06,09,20.50
2010,07,08,06,10,20.50
2010,07,08,06,11,20.50
2010,07,08,06,12,20.50
2010,07,08,06,13,20.60
2010,07,08,06,14,20.60
2010,07,08,06,15,20.60
2010,07,08,06,16,20.60
2010,07,08,06,17,20.70
2010,07,08,06,18,20.70
2010,07,08,06,19,20.70
2010,07,08,06,20,20.80
2010,07,08,06,21,20.80
2010,07,08,06,22,20.90
2010,07,08,06,23,20.90
2010,07,08,06,24,20.90
2010,07,08,06,25,21.00
2010,07,08,06,26,21.00
2010,07,08,06,27,21.10
2010,07,08,06,28,21.10
2010,07,08,06,29,21.20
2010,07,08,06,30,21.20
2010,07,08,06,31,21.30
2010,07,08,06,32,21.30
2010,07,08,06,33,21.30
2010,07,08,06,34,21.30
2010,07,08,06,35,21.30
2010,07,08,06,36,21.40
2010,07,08,06,37,21.40
2010,07,08,06,38,21.40
2010,07,08,06,39,21.40
2010,07,08,06,40,21.50
2010,07,08,06,41,21.50
2010,07,08,06,42,21.60
2010,07,08,06,43,21.60
2010,07,08,06,44,21.70
2010,07,08,06,45,21.70
2010,07,08,06,46,21.70
2010,07,08,06,47,21.80
2010,07,08,06,48,21.80
2010,07,08,06,49,21.80
2010,07,08,06,50,21.80
2010,07,08,06,51,21.80
2010,07,08,06,52,21.80
2010,07,08,06,53,21.80
2010,07,08,06,54,21.80
2010,07,08,06,55,21.90
2010,07,08,06,56,21.90
2010,07,08,06,57,21.90
2010,07,08,06,58,21.90
2010,07,08,06,59,22.00
2010,07,08,07,00,22.00
2010,07,08,07,01,22.10
2010,07,08,07,02,22.10
2010,07,08,07,03,22.20
2010,07,08,07,04,22.30
2010,07,08,07,05,22.30
2010,07,08,07,06,22.30
2010,07,08,07,07,22.40
2010,07,08,07,08,22.40
2010,07,08,07,09,22.40
2010,07,08,07,10,22.50
2010,07,08,07,11,22.50
2010,07,08,07,12,22.50
2010,07,08,07,13,22.60
2010,07,08,07,14,22.60
2010,07,08,07,15,22.60
2010,07,08,07,16,22.60
2010,07,08,07,17,22.60
2010,07,08,07,18,22.70
2010,07,08,07,19,22.70
2010,07,08,07,20,22.70
2010,07,08,07,21,22.70
2010,07,08,07,22,22.70
2010,07,08,07,23,22.70
2010,07,08,07,24,22.70
2010,07,08,07,25,22.80
2010,07,08,07,26,22.80
2010,07,08,07,27,22.80
2010,07,08,07,28,22.90
2010,07,08,07,29,22.90
2010,07,08,07,30,22.90
2010,07,08,07,31,23.00
2010,07,08,07,32,23.00
2010,07,08,07,33,23.10
2010,07,08,07,34,23.10
2010,07,08,07,35,23.10
2010,07,08,07,36,23.10
2010,07,08,07,37,23.20
2010,07,08,07,38,23.20
2010,07,08,07,39,23.20
2010,07,08,07,40,23.20
2010,07,08,07,41,23.20
2010,07,08,07,42,23.30
2010,07,08,07,43,23.30
2010,07,08,07,44,23.30
2010,07,08,07,45,23.40
2010,07,08,07,46,23.40
2010,07,08,07,47,23.40
2010,07,08,07,48,23.40
2010,07,08,07,49,23.40
2010,07,08,07,50,23.40
2010,07,08,07,51,23.40
2010,07,08,07,52,23.50
2010,07,08,07,53,23.50
2010,07,08,07,54,23.60
2010,07,08,07,55,23.60
2010,07,08,07,56,23.60
2010,07,08,07,57,23.60
2010,07,08,07,58,23.60
2010,07,08,07,59,23.60
2010,07,08,08,00,23.60
2010,07,08,08,01,23.60
2010,07,08,08,02,23.60
2010,07,08,08,03,23.60
2010,07,08,08,04,23.60
2010,07,08,08,05,23.70
2010,07,08,08,06,23.70
2010,07,08,08,07,23.80
2010,07,08,08,08,23.70
2010,07,08,08,09,23.70
2010,07,08,08,10,23.60
2010,07,08,08,11,23.60
2010,07,08,08,12,23.60
2010,07,08,08,13,23.60
2010,07,08,08,14,23.70
2010,07,08,08,15,23.70
2010,07,08,08,16,23.70
2010,07,08,08,17,23.70
2010,07,08,08,18,23.70
2010,07,08,08,19,23.70
2010,07,08,08,20,23.70
2010,07,08,08,21,23.80
2010,07,08,08,22,23.70
2010,07,08,08,23,23.70
2010,07,08,08,24,23.70
2010,07,08,08,25,23.70
2010,07,08,08,26,23.70
2010,07,08,08,27,23.70
2010,07,08,08,28,23.70
2010,07,08,08,29,23.70
2010,07,08,08,30,23.80
2010,07,08,08,31,23.90
2010,07,08,08,32,23.90
2010,07,08,08,33,24.00
2010,07,08,08,34,24.00
2010,07,08,08,35,24.10
2010,07,08,08,36,24.10
2010,07,08,08,37,24.20
2010,07,08,08,38,24.30
2010,07,08,08,39,24.30
2010,07,08,08,40,24.30
2010,07,08,08,41,24.40
2010,07,08,08,42,24.40
2010,07,08,08,43,24.40
2010,07,08,08,44,24.30
2010,07,08,08,45,24.30
2010,07,08,08,46,24.40
2010,07,08,08,47,24.40
2010,07,08,08,48,24.40
2010,07,08,08,49,24.40
2010,07,08,08,50,24.40
2010,07,08,08,51,24.40
2010,07,08,08,52,24.50
2010,07,08,08,53,24.50
2010,07,08,08,54,24.60
2010,07,08,08,55,24.60
2010,07,08,08,56,24.60
2010,07,08,08,57,24.70
2010,07,08,08,58,24.70
2010,07,08,08,59,24.60
2010,07,08,09,00,24.60
2010,07,08,09,01,24.60
2010,07,08,09,02,24.70
2010,07,08,09,03,24.70
2010,07,08,09,04,24.80
2010,07,08,09,05,24.90
2010,07,08,09,06,24.90
2010,07,08,09,07,24.90
2010,07,08,09,08,25.00
2010,07,08,09,09,25.00
2010,07,08,09,10,25.10
2010,07,08,09,11,25.10
2010,07,08,09,12,25.10
2010,07,08,09,13,25.20
2010,07,08,09,14,25.20
2010,07,08,09,15,25.20
2010,07,08,09,16,25.20
2010,07,08,09,17,25.10
2010,07,08,09,18,25.20
2010,07,08,09,19,25.20
2010,07,08,09,20,25.20
2010,07,08,09,21,25.30
2010,07,08,09,22,25.30
2010,07,08,09,23,25.40
2010,07,08,09,24,25.40
2010,07,08,09,25,25.50
2010,07,08,09,26,25.60
2010,07,08,09,27,25.60
2010,07,08,09,28,25.60
2010,07,08,09,29,25.60
2010,07,08,09,30,25.60
2010,07,08,09,31,25.70
2010,07,08,09,32,25.70
2010,07,08,09,33,25.70
2010,07,08,09,34,25.70
2010,07,08,09,35,25.80
2010,07,08,09,36,25.80
2010,07,08,09,37,25.70
2010,07,08,09,38,25.80
2010,07,08,09,39,25.70
2010,07,08,09,40,25.70
2010,07,08,09,41,25.60
2010,07,08,09,42,25.60
2010,07,08,09,43,25.60
2010,07,08,09,44,25.60
2010,07,08,09,45,25.60
2010,07,08,09,46,25.60
2010,07,08,09,47,25.60
2010,07,08,09,48,25.60
2010,07,08,09,49,25.60
2010,07,08,09,50,25.60
2010,07,08,09,51,25.60
2010,07,08,09,52,25.60
2010,07,08,09,53,25.60
2010,07,08,09,54,25.60
2010,07,08,09,55,25.60
2010,07,08,09,56,25.70
2010,07,08,09,57,25.70
2010,07,08,09,58,25.80
2010,07,08,09,59,25.90
2010,07,08,10,00,25.90
2010,07,08,10,01,25.90
2010,07,08,10,02,25.90
2010,07,08,10,03,25.90
2010,07,08,10,04,25.90
2010,07,08,10,05,25.90
2010,07,08,10,06,25.90
2010,07,08,10,07,25.90
2010,07,08,10,08,25.80
2010,07,08,10,09,25.80
2010,07,08,10,10,25.70
2010,07,08,10,11,25.70
2010,07,08,10,12,25.70
2010,07,08,10,13,25.70
2010,07,08,10,14,25.80
2010,07,08,10,15,25.80
2010,07,08,10,16,25.90
2010,07,08,10,17,25.90
2010,07,08,10,18,25.80
2010,07,08,10,19,25.70
2010,07,08,10,20,25.70
2010,07,08,10,21,25.70
2010,07,08,10,22,25.70
2010,07,08,10,23,25.80
2010,07,08,10,24,25.80
2010,07,08,10,25,25.90
2010,07,08,10,26,25.90
2010,07,08,10,27,25.90
2010,07,08,10,28,25.90
2010,07,08,10,29,26.00
2010,07,08,10,30,26.00
2010,07,08,10,31,26.10
2010,07,08,10,32,26.10
2010,07,08,10,33,26.10
2010,07,08,10,34,26.10
2010,07,08,10,35,26.10
2010,07,08,10,36,26.20
2010,07,08,10,37,26.20
2010,07,08,10,38,26.30
2010,07,08,10,39,26.40
2010,07,08,10,40,26.40
2010,07,08,10,41,26.30
2010,07,08,10,42,26.30
2010,07,08,10,43,26.20
2010,07,08,10,44,26.20
2010,07,08,10,45,26.10
2010,07,08,10,46,26.00
2010,07,08,10,47,26.00
2010,07,08,10,48,25.90
2010,07,08,10,49,25.90
2010,07,08,10,50,25.90
2010,07,08,10,51,26.00
2010,07,08,10,52,26.10
2010,07,08,10,53,26.20
2010,07,08,10,54,26.30
2010,07,08,10,55,26.40
2010,07,08,10,56,26.40
2010,07,08,10,57,26.50
2010,07,08,10,58,26.50
2010,07,08,10,59,26.60
2010,07,08,11,00,26.60
2010,07,08,11,01,26.60
2010,07,08,11,02,26.50
2010,07,08,11,03,26.40
2010,07,08,11,04,26.40
2010,07,08,11,05,26.40
2010,07,08,11,06,26.40
2010,07,08,11,07,26.50
2010,07,08,11,08,26.60
2010,07,08,11,09,26.70
2010,07,08,11,10,26.70
2010,07,08,11,11,26.80
2010,07,08,11,12,26.80
2010,07,08,11,13,26.80
2010,07,08,11,14,26.80
2010,07,08,11,15,26.80
2010,07,08,11,16,26.90
2010,07,08,11,17,27.00
2010,07,08,11,18,27.00
2010,07,08,11,19,27.10
2010,07,08,11,20,27.10
2010,07,08,11,21,27.00
2010,07,08,11,22,27.00
2010,07,08,11,23,27.00
2010,07,08,11,24,26.90
2010,07,08,11,25,26.80
2010,07,08,11,26,26.80
2010,07,08,11,27,26.70
2010,07,08,11,28,26.70
2010,07,08,11,29,26.70
2010,07,08,11,30,26.80
2010,07,08,11,31,26.90
2010,07,08,11,32,27.00
2010,07,08,11,33,27.00
2010,07,08,11,34,27.20
2010,07,08,11,35,27.30
2010,07,08,11,36,27.40
2010,07,08,11,37,27.40
2010,07,08,11,38,27.50
2010,07,08,11,39,27.50
2010,07,08,11,40,27.60
2010,07,08,11,41,27.60
2010,07,08,11,42,27.60
2010,07,08,11,43,27.60
2010,07,08,11,44,27.60
2010,07,08,11,45,27.50
2010,07,08,11,46,27.50
2010,07,08,11,47,27.50
2010,07,08,11,48,27.50
2010,07,08,11,49,27.50
2010,07,08,11,50,27.50
2010,07,08,11,51,27.60
2010,07,08,11,52,27.60
2010,07,08,11,53,27.70
2010,07,08,11,54,27.70
2010,07,08,11,55,27.80
2010,07,08,11,56,27.80
2010,07,08,11,57,27.80
2010,07,08,11,58,27.80
2010,07,08,11,59,27.80
2010,07,08,12,00,27.80
2010,07,08,12,01,27.80
2010,07,08,12,02,27.80
2010,07,08,12,03,27.80
2010,07,08,12,04,27.80
2010,07,08,12,05,27.90
2010,07,08,12,06,27.90
2010,07,08,12,07,27.90
2010,07,08,12,08,27.90
2010,07,08,12,09,27.90
2010,07,08,12,10,27.90
2010,07,08,12,11,27.90
2010,07,08,12,12,27.90
2010,07,08,12,13,27.90
2010,07,08,12,14,28.00
2010,07,08,12,15,28.00
2010,07,08,12,16,28.10
2010,07,08,12,17,28.20
2010,07,08,12,18,28.40
2010,07,08,12,19,28.50
2010,07,08,12,20,28.50
2010,07,08,12,21,28.60
2010,07,08,12,22,28.60
2010,07,08,12,23,28.60
2010,07,08,12,24,28.60
2010,07,08,12,25,28.60
2010,07,08,12,26,28.60
2010,07,08,12,27,28.60
2010,07,08,12,28,28.50
2010,07,08,12,29,28.50
2010,07,08,12,30,28.60
2010,07,08,12,31,28.60
2010,07,08,12,32,28.70
2010,07,08,12,33,28.70
2010,07,08,12,34,28.60
2010,07,08,12,35,28.50
2010,07,08,12,36,28.40
2010,07,08,12,37,28.40
2010,07,08,12,38,28.40
2010,07,08,12,39,28.30
2010,07,08,12,40,28.40
2010,07,08,12,41,28.50
2010,07,08,12,42,28.60
2010,07,08,12,43,28.70
2010,07,08,12,44,28.80
2010,07,08,12,45,28.90
2010,07,08,12,46,29.00
2010,07,08,12,47,29.00
2010,07,08,12,48,29.00
2010,07,08,12,49,29.10
2010,07,08,12,50,29.10
2010,07,08,12,51,29.00
2010,07,08,12,52,28.90
2010,07,08,12,53,28.90
2010,07,08,12,54,28.90
2010,07,08,12,55,28.90
2010,07,08,12,56,28.90
2010,07,08,12,57,29.00
2010,07,08,12,58,29.00
2010,07,08,12,59,29.10
2010,07,08,13,00,29.20
2010,07,08,13,01,29.30
2010,07,08,13,02,29.30
2010,07,08,13,03,29.40
2010,07,08,13,04,29.40
2010,07,08,13,05,29.50
2010,07,08,13,06,29.50
2010,07,08,13,07,29.60
2010,07,08,13,08,29.50
2010,07,08,13,09,29.50
2010,07,08,13,10,29.40
2010,07,08,13,11,29.40
2010,07,08,13,12,29.50
2010,07,08,13,13,29.60
2010,07,08,13,14,29.60
2010,07,08,13,15,29.70
2010,07,08,13,16,29.80
2010,07,08,13,17,29.90
2010,07,08,13,18,29.90
2010,07,08,13,19,29.90
2010,07,08,13,20,29.80
2010,07,08,13,21,29.80
2010,07,08,13,22,29.70
2010,07,08,13,23,29.70
2010,07,08,13,24,29.70
2010,07,08,13,25,29.80
2010,07,08,13,26,29.80
2010,07,08,13,27,29.90
2010,07,08,13,28,30.00
2010,07,08,13,29,30.00
2010,07,08,13,30,30.00
2010,07,08,13,31,30.00
2010,07,08,13,32,29.90
2010,07,08,13,33,29.90
2010,07,08,13,34,29.90
2010,07,08,13,35,29.90
2010,07,08,13,36,29.90
2010,07,08,13,37,29.90
2010,07,08,13,38,29.80
2010,07,08,13,39,29.80
2010,07,08,13,40,29.80
2010,07,08,13,41,29.80
2010,07,08,13,42,29.90
2010,07,08,13,43,29.90
2010,07,08,13,44,29.90
2010,07,08,13,45,29.90
2010,07,08,13,46,29.90
2010,07,08,13,47,29.90
2010,07,08,13,48,29.90
2010,07,08,13,49,29.80
2010,07,08,13,50,29.80
2010,07,08,13,51,29.80
2010,07,08,13,52,29.70
2010,07,08,13,53,29.60
2010,07,08,13,54,29.60
2010,07,08,13,55,29.50
2010,07,08,13,56,29.50
2010,07,08,13,57,29.50
2010,07,08,13,58,29.60
2010,07,08,13,59,29.50
2010,07,08,14,00,29.50
2010,07,08,14,01,29.50
2010,07,08,14,02,29.60
2010,07,08,14,03,29.60
2010,07,08,14,04,29.60
2010,07,08,14,05,29.70
2010,07,08,14,06,29.80
2010,07,08,14,07,29.80
2010,07,08,14,08,29.80
2010,07,08,14,09,29.90
2010,07,08,14,10,29.80
2010,07,08,14,11,29.80
2010,07,08,14,12,29.70
2010,07,08,14,13,29.70
2010,07,08,14,14,29.80
2010,07,08,14,15,29.70
2010,07,08,14,16,29.70
2010,07,08,14,17,29.70
2010,07,08,14,18,29.80
2010,07,08,14,19,29.80
2010,07,08,14,20,29.90
2010,07,08,14,21,29.90
2010,07,08,14,22,29.90
2010,07,08,14,23,29.90
2010,07,08,14,24,30.00
2010,07,08,14,25,30.10
2010,07,08,14,26,30.20
2010,07,08,14,27,30.30
2010,07,08,14,28,30.50
2010,07,08,14,29,30.60
2010,07,08,14,30,30.70
2010,07,08,14,31,30.70
2010,07,08,14,32,30.70
2010,07,08,14,33,30.70
2010,07,08,14,34,30.70
2010,07,08,14,35,30.70
2010,07,08,14,36,30.80
2010,07,08,14,37,30.80
2010,07,08,14,38,30.90
2010,07,08,14,39,31.00
2010,07,08,14,40,31.00
2010,07,08,14,41,31.10
2010,07,08,14,42,31.00
2010,07,08,14,43,30.90
2010,07,08,14,44,30.80
2010,07,08,14,45,30.70
2010,07,08,14,46,30.60
2010,07,08,14,47,30.30
2010,07,08,14,48,30.20
2010,07,08,14,49,30.20
2010,07,08,14,50,30.20
2010,07,08,14,51,30.20
2010,07,08,14,52,30.10
2010,07,08,14,53,30.10
2010,07,08,14,54,30.10
2010,07,08,14,55,30.00
2010,07,08,14,56,29.90
2010,07,08,14,57,29.90
2010,07,08,14,58,29.90
2010,07,08,14,59,29.80
2010,07,08,15,00,29.70
2010,07,08,15,01,29.60
2010,07,08,15,02,29.50
2010,07,08,15,03,29.40
2010,07,08,15,04,29.30
2010,07,08,15,05,29.30
2010,07,08,15,06,29.30
2010,07,08,15,07,29.30
2010,07,08,15,08,29.30
2010,07,08,15,09,29.30
2010,07,08,15,10,29.30
2010,07,08,15,11,29.20
2010,07,08,15,12,29.20
2010,07,08,15,13,29.20
2010,07,08,15,14,29.30
2010,07,08,15,15,29.30
2010,07,08,15,16,29.40
2010,07,08,15,17,29.40
2010,07,08,15,18,29.50
2010,07,08,15,19,29.50
2010,07,08,15,20,29.50
2010,07,08,15,21,29.60
2010,07,08,15,22,29.70
2010,07,08,15,23,29.70
2010,07,08,15,24,29.70
2010,07,08,15,25,29.70
2010,07,08,15,26,29.80
2010,07,08,15,27,29.80
2010,07,08,15,28,29.90
2010,07,08,15,29,29.90
2010,07,08,15,30,30.00
2010,07,08,15,31,30.00
2010,07,08,15,32,30.00
2010,07,08,15,33,30.00
2010,07,08,15,34,30.10
2010,07,08,15,35,30.20
2010,07,08,15,36,30.30
2010,07,08,15,37,30.30
2010,07,08,15,38,30.40
2010,07,08,15,39,30.60
2010,07,08,15,40,30.70
2010,07,08,15,41,30.80
2010,07,08,15,42,31.00
2010,07,08,15,43,31.10
2010,07,08,15,44,31.10
2010,07,08,15,45,31.10
2010,07,08,15,46,31.10
2010,07,08,15,47,31.20
2010,07,08,15,48,31.20
2010,07,08,15,49,31.30
2010,07,08,15,50,31.30
2010,07,08,15,51,31.30
2010,07,08,15,52,31.20
2010,07,08,15,53,31.10
2010,07,08,15,54,31.00
2010,07,08,15,55,30.80
2010,07,08,15,56,30.70
2010,07,08,15,57,30.70
2010,07,08,15,58,30.60
2010,07,08,15,59,30.50
2010,07,08,16,00,30.40
2010,07,08,16,01,30.30
2010,07,08,16,02,30.40
2010,07,08,16,03,30.30
2010,07,08,16,04,30.30
2010,07,08,16,05,30.40
2010,07,08,16,06,30.30
2010,07,08,16,07,30.40
2010,07,08,16,08,30.50
2010,07,08,16,09,30.60
2010,07,08,16,10,30.60
2010,07,08,16,11,30.60
2010,07,08,16,12,30.60
2010,07,08,16,13,30.70
2010,07,08,16,14,30.60
2010,07,08,16,15,30.60
2010,07,08,16,16,30.40
2010,07,08,16,17,30.40
2010,07,08,16,18,30.30
2010,07,08,16,19,30.20
2010,07,08,16,20,30.20
2010,07,08,16,21,30.10
2010,07,08,16,22,30.10
2010,07,08,16,23,30.00
2010,07,08,16,24,29.90
2010,07,08,16,25,29.80
2010,07,08,16,26,29.80
2010,07,08,16,27,29.80
2010,07,08,16,28,29.80
2010,07,08,16,29,29.90
2010,07,08,16,30,30.00
2010,07,08,16,31,30.00
2010,07,08,16,32,30.00
2010,07,08,16,33,30.00
2010,07,08,16,34,30.00
2010,07,08,16,35,30.10
2010,07,08,16,36,30.00
2010,07,08,16,37,30.00
2010,07,08,16,38,30.00
2010,07,08,16,39,30.00
2010,07,08,16,40,30.00
2010,07,08,16,41,30.10
2010,07,08,16,42,30.20
2010,07,08,16,43,30.20
2010,07,08,16,44,30.20
2010,07,08,16,45,30.30
2010,07,08,16,46,30.30
2010,07,08,16,47,30.40
2010,07,08,16,48,30.40
2010,07,08,16,49,30.40
2010,07,08,16,50,30.50
2010,07,08,16,51,30.50
2010,07,08,16,52,30.50
2010,07,08,16,53,30.40
2010,07,08,16,54,30.30
2010,07,08,16,55,30.30
2010,07,08,16,56,30.30
2010,07,08,16,57,30.20
2010,07,08,16,58,30.10
2010,07,08,16,59,30.10
2010,07,08,17,00,30.00
2010,07,08,17,01,29.90
2010,07,08,17,02,29.90
2010,07,08,17,03,29.80
2010,07,08,17,04,29.70
2010,07,08,17,05,29.60
2010,07,08,17,06,29.60
2010,07,08,17,07,29.60
2010,07,08,17,08,29.60
2010,07,08,17,09,29.60
2010,07,08,17,10,29.60
2010,07,08,17,11,29.60
2010,07,08,17,12,29.60
2010,07,08,17,13,29.60
2010,07,08,17,14,29.60
2010,07,08,17,15,29.70
2010,07,08,17,16,29.70
2010,07,08,17,17,29.70
2010,07,08,17,18,29.70
2010,07,08,17,19,29.70